Погода в Ишиме

Погода в Ишиме : погода сейчас, прогноз погоды и архив. Всё, что Вы хотите узнать о погоде в Ишиме!

Хотите узнать прогноз погоды в Ишиме? Тогда Вам сюда: Погода в Ишиме

Поиск расширенной информации на нашем сайте:

Другие новости

Новости СМИ2

Главная страница сайта

Новости сайта

03.07.2017

Напоминаем, что на нашем специализированном сайте Метеоцентр.Азия вы можете получить высокодетализированные автоматические прогнозы погоды по пунктам России, СНГ и мира в авиационном формате (включающие направление и скорость ветра, видимость, явления погоды, количество и форму облачности, нижнюю и верхнюю границу облачности).


Погода в Ишиме - сегодня

Время (UTC), дата Ветер
(°,м/с) 
Видим.   Явления Облачность Т
(°С)
Тd
(°С)
f(%) Тe
(°С)
Pmin
(гПа)
dP
(гПа)
Po
(мм)
O2
(г/м3)
Тmin Tmax R s Состояние
почвы
06 23.07.17 190 (Ю) 20000 м  {ливн. осадки}  8/8 1000 м 
[Cu med, cong]
+22.4 +16 67 +33  1008.6  -0.2  749  276           
09 23.07.17 160 (Ю) 20000 м  {ливн. осадки}  9/9 600 м кучево-дожд. 
[Cb cap]
+22.3 +15.3 65 +32  1007.7  -0.9  749  276           
12 23.07.17 190 (Ю) 20000 м  {ливн. осадки}  9/8 600 м кучево-дожд., верхняя 
[Cb cap|Ci ing]
+23.3 +16.6 66 +35  1006.1  -1.6  748  274           
15 23.07.17 330 (СЗ) 20000 м  гроза без осадков  9/9 600 м кучево-дожд. 
[Cb cap]
+20.9 +17.5 81 +34  1005.9  -0.3  747  276    +24.8  0.0     
18 23.07.17 350 (С) 10 км  в посл. час ливневой дождь{гроза}  4/4 600 м кучево-дожд. 
[Cb cap]
+17.6 +15.9 90 +29  1004.9  -1.1  747  279           
21 23.07.17 350 (С) 10 км    6/6 1000 м 
[Sc]
+16.1 +15.6 97 +27  1004.5  -0.5  746  281           
00 24.07.17 310 (СЗ) 0500 м  туман  10/0 средняя 
[Ac und]
+15.4 +15 97 +25  1003.5  -1  745  281           
03 24.07.17 320 (СЗ) 20000 м  {туман}  10/10 1000 м 
[Sc]
+16 +15.5 97 +27  1004.3  0.9  746  281  +15    0.5     
06 24.07.17 300 (СЗ) 20000 м  {туман}  8/8 1000 м 
[Sc]
+20.5 +15.5 73 +30  1004  -0.2  746  276           
09 24.07.17 320 (СЗ) 20000 м    6/4 600 м верхняя 
[Cu med, cong|Ci fib]
+23.3 +14.6 58 +31  1003.7  -0.2  746  274           
12 24.07.17 290 (З) 20000 м    8/1 600 м верхняя 
[Cu med, cong|Ci fib]
+23.3 +14.1 56 +31  1004.3  0.5  746  274           
15 24.07.17 290 (З) 20000 м    6/0 верхняя 
[Cc]
+20.9 +14.8 68 +29  1004.8  0.4  746  276    +23.9       
18 24.07.17 270 (З) 10 км    ясно 
+16.8 +14.8 88 +26  1005  0.1  747  280           
21 24.07.17 230 (ЮЗ) 10 км  местами туман поземный  1/0 средняя 
[Ac trans]
+13.9 +13.3 96 +21  1005.3  0.2  747  284           
00 25.07.17 220 (ЮЗ) 0500 м  туман  8/0 средняя, верхняя 
[Ac trans|Ci fib]
+13 +12.7 98 +19  1004.9  -0.5  746  285           
03 25.07.17 240 (ЮЗ) 20000 м  {туман}  9/0 верхняя 
[Ci fib]
+20.5 +16.4 77 +32  1004.9  0.2  747  276  +12.1         
06 25.07.17 270 (З) 20000 м  {туман}  9/6 1000 м верхняя 
[Cu med, cong|Ci fib]
+24.5 +15.4 57 +34  1004.1  -0.6  746  273           
09 25.07.17 220 (ЮЗ) 20000 м    8/4 600 м кучево-дожд., верхняя 
[Cb cap|Cc]
+26 +14.9 50 +35  1003.4  -0.7  746  271           
12 25.07.17 260 (З) 20000 м    10/4 600 м кучево-дожд., верхняя 
[Cb cap|Ci sp]
+22.8 +16 65 +33  1003.7  0.2  746  274           
15 25.07.17 240 (ЮЗ) 4000 м  слаб. дождь  10/0 средняя 
[As op]
+18 +16.6 92 +31  1004.7  0.8  746  278    +26.4  0.8     
18 25.07.17 200 (Ю) 10 км  {дождь}  9/0 средняя 
[Ac As]
+16.8 +15.8 94 +28  1004.6  -0.1  746  280           
21 25.07.17 160 (Ю) 10 км  туман поземный  ясно 
+13.9 +13.4 97 +21  1004.5  -0.2  746  283           
00 26.07.17 200 (Ю) 0500 м  туман  ясно 
+15.9 +15.5 97 +27  1004.5  746  281           
03 26.07.17 200 (Ю) 0500 м  туман  10/0 средняя 
[Ac und]
+16.7 +16.4 98 +29  1005.1  0.7  747  280  +13.9    0.6     
06 26.07.17 040 (СВ) 20000 м  {туман}  3/3 1000 м 
[Cu med, cong]
+21.3 +17.6 79 +35  1004.9  747  275           
Время (UTC), дата Ветер
(°,м/с) 
Видим.   Явления Облачность Т
(°С)
Тd
(°С)
f(%) Тe
(°С)
Pmin
(гПа)
dP
(гПа)
Po
(мм)
O2
(г/м3)
Тmin Tmax R s Состояние
почвы

Для получения пояснительной информации подведите курсор к названию столбца.

ПОГОДА в Ишиме - архив

Всё, что Вы хотите узнать о погоде в Ишиме - удобно и подробно!

Выберите нужную дату (начиная с 1 января 2015* года) и нажмите кнопку "Найти".
Будут отображены архивные сводки погоды по пункту Ишим, начиная с указанной даты.


Отображать данные в формате CSV (для использования в таблицах Excel)


Внимание! Наш архив погоды предназначен исключительно для личного некоммерческого использования в познавательных целях. Если Вам необходимы официальные справки о состоянии погоды (для производственных, юридических, коммерческих и т.п. целей), обращайтесь в органы Росгидромета.

*Примечание: данная дата относится к архиву по метеостанциям СССР (Россия, СНГ, Балтия).
Архив по метеостанциям Зарубежной Европы и Азии (кроме Китая) хранится 10 дней, по другим регионам земного шара (Китай, Африка, Америка, Австралия, Океания) - 1 день.

Ишим - район местоположения метеостанции


Название, широта, долгота, высота метеостанции:
Ишим 56.1°ш. 69.4°д. 82 м над ур. моря [Российская Федерация]

Дополнительная информация

В oтличие oт бoльшинства пoгoдных сайтoв мы публикуем пoдрoбную метеoинфoрмацию в детальнoм прoфессиoнальнoм фoрмате.

Характеристики температуры и влажнoсти вoздуха измеряются на высoте 2 м в тени вдали oт зданий и деревьев.
Скoрoсть ветра измеряется на высoте 10 м (на урoвне рoста челoвека скoрoсть ветра ниже в 1.5-2 раза). Если метеoстанция нахoдится в гoрoде или в лесу, тo скoрoсть ветра занижена на 2-4 м/с пo сравнению с oткрытым местoм. Скoрoсть ветра над акватoриями крупных рек и oзёр, а также на вершинах хoлмoв на 2-5 м/с выше, чем в oбычных услoвиях.
Атмoсфернoе давление в разных тoчках местнoсти мoжет значительнo oтличаться oт давления на метеoстанции, в зависимoсти oт услoвий рельефа (при пoдъёме на 10 м давление пoнижается примернo на 1 мм рт.ст.).